Flag for Germany Weather past 2 weeks in Cuxhaven, Lower Saxony, Germany

Now
55 °F

Scattered clouds.


Feels Like: 51 °F
Forecast: 49 / 57 °F
Wind: 18 mph from Northwest

Location: Nordholz

Current Time: May 26, 2015 at 2:37:03 PM

Latest Report: May 26, 2015 at 1:20 PM


Visibility: N/A

Pressure: 30.04 "Hg

Humidity: 63%

Dew point: 43 °F

Location of CuxhavenLocation

Historic Weather in Cuxhaven — Graph

°F

Cuxhaven temperature yesterday

Maximum temperature yesterday: 55 °F (at 1:20 PM)
Minimum temperature yesterday: 48 °F (at 12:20 AM)
Average temperature yesterday: 52 °F

Past Weeks' High & Low Weather Summary

 TemperatureHumidityPressure
High75 °F (May 11, 5:20 PM)100% (May 25, 6:45 AM)30.30 "Hg (May 25, 6:45 AM)
Low43 °F (May 20, 1:20 AM)41% (May 11, 5:20 PM)29.53 "Hg (May 18, 11:58 PM)
Average51 °F75%30.01 "Hg
* Reported May 11 1:20 PM — May 26 1:20 PM, Cuxhaven, Weather by CustomWeather, © 2015

Note: Actual official high and low records may vary slightly from our data, if they occured in-between our weather recording intervals... More about our weather records

Advertising

Cuxhaven weather history for previous 24 hours

 ConditionsComfort  
Time TempWeatherWind HumidityBarometerVisibility
1:20 PM
Tue, May 26
55 °FScattered clouds.18 mph63%30.04 "HgN/A
12:20 PM54 °FPartly sunny.17 mph63%30.04 "HgN/A
11:20 AM54 °FScattered clouds.18 mph67%30.04 "HgN/A
10:20 AM52 °FScattered clouds.14 mph72%30.04 "HgN/A
9:20 AM52 °FPassing clouds.14 mph72%30.04 "HgN/A
8:20 AM50 °FScattered clouds.13 mph76%30.01 "HgN/A
7:20 AM50 °FScattered clouds.13 mph76%29.98 "HgN/A
6:20 AM48 °FPassing clouds.7 mph82%29.98 "HgN/A
5:20 AM48 °FPassing clouds.9 mph82%29.98 "HgN/A
4:20 AM48 °FScattered showers. Partly cloudy.7 mph82%29.98 "HgN/A
3:20 AM48 °FPassing clouds.8 mph87%29.98 "HgN/A
2:20 AM48 °FPassing clouds.6 mph87%29.98 "HgN/A
1:20 AM48 °FLight rain. Partly cloudy.3 mph87%29.98 "HgN/A
12:20 AM48 °FLight rain. Passing clouds.7 mph87%29.98 "HgN/A
11:20 PM
Mon, May 25
52 °FPartly cloudy.7 mph72%29.98 "HgN/A
10:20 PM50 °FPartly sunny.5 mph82%29.98 "HgN/A
9:20 PM52 °FPartly sunny.6 mph67%29.98 "HgN/A
8:20 PM52 °FPartly sunny.9 mph72%29.95 "HgN/A
7:20 PM54 °FScattered clouds.9 mph54%29.95 "HgN/A
6:20 PM54 °FPassing clouds.14 mph67%29.95 "HgN/A
5:20 PM54 °FPassing clouds.13 mph72%29.95 "HgN/A
4:20 PM55 °FPassing clouds.15 mph63%29.95 "HgN/A
3:20 PM54 °FPassing clouds.13 mph67%29.95 "HgN/A
2:20 PM54 °FScattered clouds.13 mph63%29.95 "HgN/A
Weather by CustomWeather, © 2015

See weather overviewHow to use our weather pages